Weather in Novi Mlyny

Ukraine / Chernihiv Region     51°45′53″N   31°49′33″E
temp.,
°C
wind,
m/s
gust,
m/s
humid.,
%
clouds,
%
prec.,
mm/h
press.,
hPa
HPBL,
m
20 april, tue
tue2000:00+5ne389662 0.0 1016228
03:00+6ne379089 0.0 1015236
06:00+6nne479095 0.0 1013263
09:00+7ne578493 0.0 1013640
12:00+10ne5566100 0.3 10111150
15:00+10ne677499 0.8 1009912
18:00+7nne4791100 0.4 1009489
21:00+7n4795100 0.8 1008442
21 april, wed
wed2100:00+6n5895100 1.8 1007460
03:00+6nne3694100 2.3 1008445
06:00+5n2494100 1.5 1008752
09:00+5nw2394100 3.0 1010788
12:00+5wnw2391100 1.4 1011748
15:00+6w2491100 1.6 1012607
18:00+9s347564 0.0 1012698
21:00+5s348896 0.0 101358
22 april, thu
thu2200:00+5s348962 0.0 101455
03:00+5s3692100 0.0 1014113
06:00+4s369550 0.0 1014103
09:00+10ssw587962 0.0 1015365
12:00+14ssw8106326 1.0 10141437
15:00+16sw795167 1.9 10142105
18:00+13wsw61070100 1.1 1014771
21:00+10s4108174 1.3 1014186
23 april, fri
fri2300:00+9s3891100 0.3 1014151
03:00+7ssw389492 0.4 1014179
06:00+7w2297100 0.2 101448
09:00+7nnw4591100 1.9 1015401
12:00+4nw6896100 0.3 1016495
15:00+3nw4896100 2.5 1017417
18:00+6nw2481100 0.6 1016680
21:00+5ssw2389100 0.7 101645
24 april, sat
sat2400:00+3sw358917 0.0 101588
03:00+2wsw4892100 0.3 1015201
06:00+1w38935 0.0 1015186
09:00+6w57709 0.0 1015723
12:00+7w7959100 0.8 10151707
15:00+7w785495 1.4 10151712
18:00+7w686095 0.4 10151343
21:00+3wsw35785 0.5 101697